TimeEST,TemperatureF,Dew PointF,Humidity,Sea Level PressureIn,VisibilityMPH,Wind Direction,Wind SpeedMPH,Gust SpeedMPH,PrecipitationIn,Events,Conditions,WindDirDegrees,DateUTC
12:17 AM,21.2,6.8,54,29.97,10.0,West,21.9,31.1,N/A,,Overcast,280,2001-01-04 05:17:00
12:37 AM,21.2,6.8,54,29.96,10.0,West,18.4,26.5,N/A,,Overcast,280,2001-01-04 05:37:00
12:57 AM,21.2,6.8,54,29.95,10.0,West,19.6,29.9,N/A,,Overcast,270,2001-01-04 05:57:00
1:17 AM,21.2,6.8,54,29.95,10.0,West,18.4,25.3,N/A,,Mostly Cloudy,280,2001-01-04 06:17:00
1:37 AM,21.2,8.6,58,29.95,10.0,WNW,20.7,31.1,N/A,,Scattered Clouds,290,2001-01-04 06:37:00
1:57 AM,21.2,6.8,54,29.95,10.0,West,18.4,34.5,N/A,,Mostly Cloudy,280,2001-01-04 06:57:00
2:17 AM,21.2,8.6,58,29.96,10.0,WNW,19.6,29.9,N/A,,Overcast,290,2001-01-04 07:17:00
2:37 AM,21.2,8.6,58,29.97,10.0,NW,4.6,21.9,N/A,,Overcast,320,2001-01-04 07:37:00
2:57 AM,21.2,8.6,58,29.97,10.0,Calm,Calm,-,N/A,,Overcast,0,2001-01-04 07:57:00
3:17 AM,21.2,8.6,58,29.96,10.0,WNW,11.5,32.2,N/A,,Overcast,300,2001-01-04 08:17:00
3:37 AM,21.2,8.6,58,29.96,10.0,WNW,16.1,28.8,N/A,,Overcast,290,2001-01-04 08:37:00
3:57 AM,21.2,8.6,58,29.96,10.0,WNW,18.4,32.2,N/A,,Overcast,290,2001-01-04 08:57:00
4:17 AM,21.2,8.6,58,29.95,10.0,West,17.3,26.5,N/A,,Overcast,270,2001-01-04 09:17:00
4:37 AM,21.2,8.6,58,29.94,10.0,West,16.1,27.6,N/A,,Overcast,280,2001-01-04 09:37:00
4:57 AM,21.2,10.4,63,29.94,10.0,West,13.8,24.2,N/A,,Overcast,280,2001-01-04 09:57:00
5:17 AM,21.2,12.2,68,29.95,10.0,West,12.7,23.0,N/A,,Overcast,270,2001-01-04 10:17:00
5:37 AM,21.2,12.2,68,29.94,10.0,WNW,12.7,20.7,N/A,,Overcast,300,2001-01-04 10:37:00
5:57 AM,21.2,12.2,68,29.94,10.0,WNW,12.7,20.7,N/A,,Overcast,300,2001-01-04 10:57:00
6:17 AM,21.2,14.0,74,29.95,10.0,West,12.7,20.7,N/A,,Overcast,280,2001-01-04 11:17:00
6:37 AM,21.2,14.0,74,29.95,10.0,WNW,12.7,20.7,N/A,,Overcast,290,2001-01-04 11:37:00
6:57 AM,21.2,14.0,74,29.95,10.0,NW,9.2,21.9,N/A,,Overcast,310,2001-01-04 11:57:00
7:17 AM,21.2,15.8,80,29.96,10.0,WNW,3.5,17.3,N/A,,Overcast,300,2001-01-04 12:17:00
7:37 AM,21.2,17.6,86,29.97,10.0,WNW,8.1,23.0,N/A,,Overcast,300,2001-01-04 12:37:00
7:57 AM,21.2,17.6,86,29.96,7.0,NW,12.7,21.9,N/A,,Overcast,310,2001-01-04 12:57:00
8:17 AM,21.2,17.6,86,29.97,10.0,NW,11.5,21.9,N/A,,Overcast,320,2001-01-04 13:17:00
8:37 AM,23.0,17.6,80,29.96,10.0,NW,6.9,25.3,N/A,,Overcast,310,2001-01-04 13:37:00
8:57 AM,23.0,17.6,80,29.96,10.0,WNW,13.8,27.6,N/A,,Overcast,300,2001-01-04 13:57:00
9:17 AM,23.0,17.6,80,29.96,10.0,NW,20.7,31.1,N/A,,Overcast,320,2001-01-04 14:17:00
9:37 AM,23.0,17.6,80,29.97,10.0,NW,11.5,19.6,N/A,,Overcast,310,2001-01-04 14:37:00
9:57 AM,23.0,17.6,80,29.97,10.0,NNW,10.4,32.2,N/A,,Overcast,330,2001-01-04 14:57:00
10:17 AM,23.0,17.6,80,29.98,10.0,WNW,9.2,25.3,N/A,,Overcast,300,2001-01-04 15:17:00
10:37 AM,23.0,17.6,80,29.97,10.0,NW,20.7,36.8,N/A,,Overcast,310,2001-01-04 15:37:00
10:57 AM,23.0,17.6,80,29.98,10.0,NW,16.1,27.6,N/A,,Overcast,310,2001-01-04 15:57:00
11:17 AM,26.6,19.4,74,29.98,10.0,WNW,9.2,20.7,N/A,,Overcast,300,2001-01-04 16:17:00
11:37 AM,26.6,17.6,69,29.98,10.0,WNW,15.0,29.9,N/A,,Overcast,300,2001-01-04 16:37:00
11:57 AM,28.4,19.4,69,29.98,10.0,NW,6.9,18.4,N/A,,Overcast,320,2001-01-04 16:57:00
12:17 PM,28.4,19.4,69,29.97,10.0,WNW,10.4,19.6,N/A,,Mostly Cloudy,300,2001-01-04 17:17:00
12:37 PM,28.4,19.4,69,29.96,10.0,WNW,8.1,23.0,N/A,,Scattered Clouds,290,2001-01-04 17:37:00
12:57 PM,28.4,19.4,69,29.95,10.0,WNW,12.7,24.2,N/A,,Scattered Clouds,300,2001-01-04 17:57:00
1:17 PM,28.4,19.4,69,29.94,10.0,WNW,16.1,29.9,N/A,,Clear,290,2001-01-04 18:17:00
1:37 PM,28.4,17.6,64,29.94,10.0,WNW,15.0,26.5,N/A,,Clear,300,2001-01-04 18:37:00
1:57 PM,28.4,17.6,64,29.94,10.0,West,5.8,23.0,N/A,,Clear,260,2001-01-04 18:57:00
2:17 PM,28.4,17.6,64,29.94,10.0,SSW,3.5,-,N/A,,Clear,200,2001-01-04 19:17:00
2:37 PM,28.4,17.6,64,29.94,10.0,SSW,4.6,-,N/A,,Clear,200,2001-01-04 19:37:00
2:57 PM,28.4,17.6,64,29.95,10.0,SW,5.8,-,N/A,,Clear,230,2001-01-04 19:57:00
3:17 PM,28.4,17.6,64,29.95,10.0,NW,10.4,19.6,N/A,,Clear,320,2001-01-04 20:17:00
3:37 PM,28.4,17.6,64,29.95,10.0,West,19.6,29.9,N/A,,Clear,280,2001-01-04 20:37:00
3:57 PM,26.6,17.6,69,29.96,10.0,WNW,17.3,29.9,N/A,,Clear,300,2001-01-04 20:57:00
4:17 PM,26.6,17.6,69,29.96,10.0,WNW,18.4,32.2,N/A,,Clear,290,2001-01-04 21:17:00
4:37 PM,26.6,17.6,69,29.97,10.0,WNW,12.7,25.3,N/A,,Clear,300,2001-01-04 21:37:00
4:57 PM,24.8,17.6,74,29.97,10.0,WNW,16.1,21.9,N/A,,Clear,290,2001-01-04 21:57:00
5:17 PM,23.0,17.6,80,29.96,10.0,WNW,16.1,20.7,N/A,,Clear,290,2001-01-04 22:17:00
5:37 PM,23.0,17.6,80,29.96,10.0,WNW,21.9,25.3,N/A,,Clear,290,2001-01-04 22:37:00
5:57 PM,23.0,17.6,80,29.97,10.0,WNW,18.4,26.5,N/A,,Clear,290,2001-01-04 22:57:00
6:17 PM,23.0,17.6,80,29.97,10.0,WNW,12.7,20.7,N/A,,Clear,290,2001-01-04 23:17:00
6:37 PM,23.0,15.8,74,29.98,10.0,NW,9.2,-,N/A,,Clear,310,2001-01-04 23:37:00
6:57 PM,23.0,15.8,74,29.98,10.0,WNW,10.4,-,N/A,,Clear,290,2001-01-04 23:57:00
7:17 PM,23.0,14.0,68,29.98,10.0,North,3.5,-,N/A,,Clear,0,2001-01-05 00:17:00
7:37 PM,21.2,14.0,74,29.98,10.0,Calm,Calm,-,N/A,,Clear,0,2001-01-05 00:37:00
7:57 PM,23.0,14.0,68,29.98,10.0,Calm,Calm,-,N/A,,Clear,0,2001-01-05 00:57:00
8:17 PM,24.8,15.8,69,29.96,10.0,NW,15.0,26.5,N/A,,Clear,310,2001-01-05 01:17:00
8:37 PM,26.6,17.6,69,29.96,10.0,WNW,6.9,19.6,N/A,,Clear,300,2001-01-05 01:37:00
8:57 PM,24.8,14.0,64,29.96,10.0,Calm,Calm,-,N/A,,Clear,0,2001-01-05 01:57:00
9:17 PM,26.6,17.6,69,29.95,10.0,WNW,3.5,9.2,N/A,,Clear,290,2001-01-05 02:17:00
9:37 PM,24.8,15.8,69,29.96,10.0,WNW,4.6,-,N/A,,Clear,290,2001-01-05 02:37:00
9:57 PM,26.6,17.6,69,29.94,10.0,WNW,13.8,18.4,N/A,,Clear,300,2001-01-05 02:57:00
10:17 PM,28.4,19.4,69,29.93,10.0,West,5.8,-,N/A,,Clear,280,2001-01-05 03:17:00
10:57 PM,26.6,15.8,64,29.92,10.0,East,3.5,-,N/A,,Clear,90,2001-01-05 03:57:00
11:17 PM,21.2,14.0,74,29.92,10.0,Calm,Calm,-,N/A,,Clear,0,2001-01-05 04:17:00
11:37 PM,23.0,15.8,74,29.92,10.0,Calm,Calm,-,N/A,,Clear,0,2001-01-05 04:37:00
11:57 PM,26.6,17.6,69,29.91,10.0,Calm,Calm,-,N/A,,Clear,0,2001-01-05 04:57:00